Simultaneous Nadir Overpasses (SNOs) Predictions

Prediction of SNOs between METOP-A and TERRA Satellite Orbit:

Table of predicted SNOs for the next 14.0 days since TLE Epoch: 10/28/2011
Index Date Time (METOP-A) METOP-A Lat,Lon TERRA Lat,Lon Distance(km) Time Diff (sec)
1 10/31/2011 06:58:15 -81.21, -58.23 -81.21, -58.20 0.56 36
2 10/31/2011 07:48:54 81.22, 109.59 81.22, 109.60 0.28 37
3 11/03/2011 02:32:40 -81.21, 8.01 -81.21, 8.12 1.91 29
4 11/03/2011 03:23:19 81.22, 175.82 81.22, 175.91 1.49 44
5 11/05/2011 22:07:03 -81.22, 74.89 -81.22, 74.80 1.48 24
6 11/05/2011 22:57:42 81.22,-117.31 81.23,-117.42 1.98 49
7 11/08/2011 17:41:26 -81.22, 141.22 -81.22, 141.09 2.21 20
8 11/08/2011 18:32:05 81.22, -50.98 81.22, -51.14 2.84 53
9 11/11/2011 13:15:50 -81.21,-152.59 -81.21,-152.63 1.07 17




NCC Satellite Simultaneous Nadir Overpasses (SNOs) Prediction Service
